Regional Weather Roundup
Issued by NWS Goodland, KS

Home | Current Version | Previous Version | Graphics & Text | Print | Product List | Glossary On
Versions: 1 2 3 4 5 6 7 8 9 10 11 12 13 14 15 16 17 18 19 20 21 22 23 24 25 26 27 28 29 30 31 32 33 34 35 36 37 38 39 40 41 42 43 44 45 46 47 48 49 50
000
ASUS43 KGLD 101408
RWRGLD

GOODLAND FORECAST AREA HOURLY WEATHER ROUNDUP
NATIONAL WEATHER SERVICE GOODLAND KS
700 AM MST SAT DEC 10 2016

...OFFICIAL OBSERVATIONS...

CITY           SKY/WX    TMP DP  RH WIND       PRES   REMARKS
GOODLAND KS    CLOUDY    17  15  92 S6        30.01F
HILL CITY KS   CLOUDY    17  13  84 SE3       30.19F
IMPERIAL NEB   CLOUDY    17  13  84 SE12      30.02F WCI   4
MCCOOK NEB     CLOUDY    16  11  80 E8        30.13F
AKRON CO       CLOUDY    16  12  84 SW7       29.93F
BURLINGTON CO  CLOUDY    18  14  84 SW6       29.98F
LIMON CO       CLOUDY    10   8  92 CALM      29.96F
$$

...UNOFFICIAL OBSERVATIONS...

CITY           SKY/WX    TMP DP  RH WIND       PRES   REMARKS
COLBY KS       PTCLDY    12  12 100 E6        30.09R
LENORA KS        N/A     15  32 100 MISG        N/A
NORTON KS      MOCLDY    16  10  79 E7        30.16F
SHARON SPRINGS   N/A     19  17  90 S10         N/A  WCI   7
TRENTON NEB      N/A     14  32 100 SE8         N/A
KIT CARSON CO    N/A     16  13  88 CALM        N/A
YUMA CO        CLOUDY    10   7  85 W3        29.96F FOG
$$




USA.gov is the U.S. government's official web portal to all federal, state and local government web resources and services.